Home > Time Zones > World Clock > Weather > France > Caen > Past weeks

Flag for France Weather past 2 weeks in Caen, France

Now
55 °F

Broken clouds.


Feels Like: 50 °F
Forecast: 45 / 50 °F
Wind: 26 mph from Northwest

Location: Caen Airport

Current Time: Mar 31, 2015 at 3:15:40 PM

Latest Report: Mar 31, 2015 at 2:30 PM


Visibility: N/A

Pressure: 30.07 "Hg

Humidity: 59%

Dew point: 41 °F

Location of CaenLocation

Historic Weather in Caen — Graph

°F

Caen temperature yesterday

Maximum temperature yesterday: 54 °F (at 2:00 PM)
Minimum temperature yesterday: 46 °F (at 6:30 AM)
Average temperature yesterday: 51 °F

Past Weeks' High & Low Weather Summary

 TemperatureHumidityPressure
High63 °F (Mar 28, 3:00 PM)100% (Mar 17, 3:30 AM)30.45 "Hg (Mar 17, 3:30 AM)
Low30 °F (Mar 23, 4:00 AM)48% (Mar 17, 3:30 PM)29.68 "Hg (Mar 26, 8:30 AM)
Average46 °F83%30.07 "Hg
* Reported Mar 16 1:00 PM — Mar 31 2:00 PM, Caen, Weather by CustomWeather, © 2015

Note: Actual official high and low records may vary slightly from our data, if they occured in-between our weather recording intervals... More about our weather records

Advertising

Caen weather history for previous 24 hours

 ConditionsComfort  
Time TempWeatherWind HumidityBarometerVisibility
2:00 PM
Tue, Mar 31
55 °FPartly sunny.29 mph59%30.04 "HgN/A
1:30 PM54 °FBroken clouds.29 mph67%30.04 "HgN/A
1:00 PM54 °FMostly cloudy.26 mph67%30.04 "HgN/A
12:30 PM54 °FMore clouds than sun.28 mph67%30.01 "HgN/A
12:00 PM52 °FMostly cloudy.24 mph72%30.01 "HgN/A
11:30 AM52 °FMore clouds than sun.30 mph62%29.98 "HgN/A
11:00 AM50 °FMostly cloudy.29 mph71%29.95 "HgN/A
10:30 AM52 °FMostly cloudy.26 mph72%29.92 "HgN/A
10:00 AM52 °FBroken clouds.32 mph67%29.92 "HgN/A
9:30 AM50 °FPartly sunny.31 mph82%29.89 "Hg6 mi
9:00 AM52 °FMostly cloudy.33 mph77%29.86 "Hg6 mi
8:30 AM52 °FPartly cloudy.29 mph77%29.86 "HgN/A
8:00 AM52 °FPassing clouds.30 mph77%29.86 "HgN/A
7:30 AM52 °FPassing clouds.29 mph82%29.83 "HgN/A
7:00 AM52 °FPassing clouds.30 mph82%29.80 "HgN/A
6:30 AM52 °FOvercast.32 mph82%29.80 "HgN/A
6:00 AM52 °FMostly cloudy.36 mph82%29.80 "HgN/A
5:30 AM52 °FDrizzle. Mostly cloudy.36 mph88%29.77 "HgN/A
4:30 AM52 °FOvercast.31 mph88%29.80 "Hg4 mi
4:00 AM50 °FOvercast.29 mph94%29.80 "Hg4 mi
3:30 AM50 °FFog.33 mph94%29.80 "Hg3 mi
3:00 AM50 °FOvercast.35 mph94%29.83 "Hg6 mi
2:30 AM52 °FOvercast.37 mph82%29.83 "Hg5 mi
2:00 AM52 °FMostly cloudy.36 mph82%29.83 "HgN/A
1:30 AM52 °FOvercast.37 mph88%29.86 "HgN/A
1:00 AM54 °FDrizzle. Overcast.30 mph94%29.83 "Hg5 mi
12:30 AM54 °FDrizzle. Fog.24 mph94%29.86 "Hg2 mi
12:00 AM54 °FOvercast.30 mph94%29.83 "HgN/A
11:30 PM
Mon, Mar 30
54 °FMostly cloudy.28 mph94%29.83 "HgN/A
11:00 PM54 °FFog.26 mph94%29.86 "Hg3 mi
10:30 PM54 °FLow clouds.22 mph88%29.89 "HgN/A
10:00 PM52 °FLow clouds.17 mph94%29.89 "Hg5 mi
9:30 PM52 °FFog.17 mph94%29.92 "Hg2 mi
9:00 PM52 °FMostly cloudy.18 mph88%29.92 "HgN/A
8:30 PM52 °FMostly cloudy.18 mph88%29.95 "HgN/A
8:00 PM52 °FOvercast.16 mph82%29.95 "HgN/A
7:30 PM52 °FOvercast.16 mph77%29.95 "HgN/A
7:00 PM52 °FOvercast.13 mph77%29.98 "HgN/A
6:30 PM52 °FOvercast.13 mph77%29.98 "HgN/A
6:00 PM52 °FOvercast.15 mph77%30.01 "HgN/A
5:30 PM52 °FDrizzle. Broken clouds.13 mph82%29.98 "HgN/A
5:00 PM50 °FPartly sunny.13 mph82%30.01 "HgN/A
4:30 PM50 °FLight rain. Mostly cloudy.18 mph82%30.01 "HgN/A
4:00 PM52 °FLight rain. Mostly cloudy.15 mph72%30.01 "HgN/A
3:30 PM52 °FMostly cloudy.13 mph67%30.01 "HgN/A
3:00 PM54 °FMostly cloudy.14 mph67%30.01 "HgN/A
Weather by CustomWeather, © 2015

See weather overviewHow to use our weather pages